Regional Weather Roundup
Issued by NWS

Home | Current Version | Previous Version | Text Only | Print | Product List | Glossary On
Versions: 1 2 3 4 5 6 7 8 9 10 11 12 13 14 15 16 17 18 19 20 21 22 23 24 25 26 27 28 29 30 31 32 33 34 35 36 37 38 39 40 41 42 43 44 45 46 47 48 49 50
000
ASUS43 KBIS 270510
RWRND

NORTH DAKOTA REGIONAL WEATHER ROUNDUP
NATIONAL WEATHER SERVICE BISMARCK ND
1100 PM CST THU FEB 26 2015

NOTE: "FAIR" INDICATES FEW OR NO CLOUDS BELOW 12,000 FEET WITH NO
SIGNIFICANT WEATHER AND/OR OBSTRUCTIONS TO VISIBILITY.


NDZ001>003-009>011-017-270600-
NORTHWEST NORTH DAKOTA

CITY           SKY/WX    TMP DP  RH WIND       PRES   REMARKS
WILLISTON      CLEAR     -7 -12  79 CALM      30.44F
MINOT          PTCLDY    -8 -14  74 SW6       30.45F WCI -21
MINOT AFB      PTCLDY   -14 -19  75 W10       30.46F WCI -33
$$

NDZ018>021-031>035-040>046-270600-
SOUTHWEST NORTH DAKOTA

CITY           SKY/WX    TMP DP  RH WIND       PRES   REMARKS
BISMARCK       CLEAR     -6 -13  71 CALM      30.50F
DICKINSON      CLEAR     -5 -11  75 S6        30.38F WCI -18
GARRISON         N/A    -11 -16  78 CALM      30.46F
HETTINGER ARPT CLEAR     -8 -14  74 CALM      30.40F
$$

NDZ004>008-012>016-024-026-027-054-270600-
NORTHEAST NORTH DAKOTA

CITY           SKY/WX    TMP DP  RH WIND       PRES   REMARKS
GRAND FORKS    CLEAR     -6 -12  75 W7        30.49F WCI -20
GRND FRKS AFB  CLEAR     -4 -12  70 NW8       30.48F WCI -19
DEVILS LAKE    CLEAR    N/A N/A N/A MISG        N/A
$$

NDZ022-023-025-028>030-036>039-047>053-270600-
SOUTHEAST NORTH DAKOTA

CITY           SKY/WX    TMP DP  RH WIND       PRES   REMARKS
FARGO          FAIR      -4 -11  72 W8        30.52S WCI -19
JAMESTOWN      CLEAR     -8 -14  74 W8        30.47S WCI -24
$$




USA.gov is the U.S. government's official web portal to all federal, state and local government web resources and services.